RH
37 38 39 40 39 35 27 19 11 6 3 2 2 3 3 5 6 7 9 10 10 9 9 11 13 15 14 13 13 14 14 15 15 15 15 15 15 15 15 15 15 15 15 18 22 23 22 22 22 23 24 25 26 26 28 28 27 26 27 30 33 35 37 37 34 33 34 39 45 48 51 53 52 53 54 58 61 58 59 62 60 62 64 64 74 87 87
37 38 38 34 27 18 11 7 4 2 3 4 5 7 8 9 10 11 12 12 12 12 13 15 15 15 15 14 15 15 15 16 16 16 16 15 16 15 15 15 16 18 20 23 25 24 23 23 24 24 23 23 24 25 26 27 26 27 30 33 34 35 37 40 42 44 46 50 52 50 50 52 53 55 58 62 65 63 60 62 62 66 72 74 82 92 89
34 31 25 18 12 6 4 3 3 5 7 8 10 11 12 12 13 13 14 14 14 14 15 16 15 15 15 15 16 16 16 16 16 16 16 15 16 16 16 18 20 23 25 25 25 24 23 23 24 23 22 22 24 25 27 28 29 31 34 35 36 36 38 41 45 50 54 57 57 54 54 57 59 62 66 66 66 64 61 61 63 69 76 77 79 87 87
20 15 10 6 4 3 4 7 9 11 12 12 13 13 13 14 14 14 14 14 15 15 15 15 15 15 15 15 16 16 16 17 17 18 17 16 18 18 19 22 24 25 26 25 25 24 23 23 22 22 23 24 27 29 30 32 33 35 37 36 38 38 39 43 47 51 53 54 56 58 59 63 65 68 70 67 64 63 62 63 66 69 72 70 73 81 82
8 6 4 4 6 8 10 12 13 13 14 13 13 13 13 14 14 14 14 14 15 15 15 15 16 16 16 16 17 17 18 18 19 19 18 18 21 22 22 25 26 26 26 25 25 25 24 23 22 22 24 28 32 32 33 37 39 38 38 38 40 42 42 47 53 55 54 54 56 58 61 65 66 66 66 64 64 64 63 65 67 69 74 73 73 78 78
4 5 7 9 12 13 14 14 14 15 14 14 14 14 14 14 14 15 14 15 15 15 15 16 16 17 18 18 19 20 21 21 20 20 20 22 24 24 24 26 26 26 26 26 26 26 25 24 23 23 25 29 34 35 38 44 43 40 40 41 43 45 47 50 53 52 53 58 61 62 63 64 63 64 65 65 65 65 66 68 70 74 80 80 77 79 81
8 11 13 14 14 14 15 15 15 15 15 15 15 15 15 15 16 16 16 16 16 16 17 17 18 19 19 20 21 23 23 24 23 22 23 25 26 26 26 26 27 27 27 27 28 28 27 26 25 26 28 33 37 40 43 47 44 41 43 45 47 49 49 50 53 56 60 64 64 64 65 66 67 66 66 66 68 70 71 74 76 77 77 79 80 81 76
14 15 15 14 14 15 15 14 15 15 15 16 16 16 16 17 17 17 17 17 17 18 19 19 19 20 21 22 24 25 25 26 24 24 25 27 28 27 27 28 28 28 29 29 29 30 29 29 29 31 34 39 42 44 46 46 43 44 47 48 50 50 49 50 54 59 63 65 65 68 70 70 69 68 70 73 73 73 74 75 75 76 76 77 76 68 57
15 15 15 15 15 15 14 14 15 15 15 16 17 17 17 18 19 19 19 19 19 19 21 21 21 21 23 25 25 26 26 26 26 26 27 28 29 28 29 29 29 30 31 31 32 32 31 31 35 38 41 45 46 46 46 45 45 48 50 50 52 48 43 44 50 56 63 67 69 70 69 69 72 73 73 70 67 68 74 78 79 80 78 72 63 52 49
14 15 14 13 13 12 11 12 12 12 13 14 15 16 17 18 20 20 20 20 21 21 22 23 22 23 24 26 26 27 27 27 27 26 28 29 30 30 30 31 31 32 32 33 34 34 33 34 39 42 46 49 49 48 47 47 50 52 52 52 51 40 33 38 45 47 56 67 65 56 60 71 76 70 61 59 65 70 74 79 84 82 73 61 52 49 53
12 11 10 9 8 7 7 7 7 8 9 10 12 13 14 16 19 20 20 21 22 23 23 24 24 24 25 26 28 28 28 28 28 27 28 30 30 31 32 32 33 33 34 36 36 35 35 38 41 46 50 52 52 51 50 52 55 55 54 52 43 30 30 39 40 34 44 58 51 43 64 84 75 60 58 64 71 75 76 81 81 70 56 48 48 53 57
8 7 5 5 5 4 5 5 5 6 7 7 9 11 11 14 17 19 20 22 23 23 23 24 25 25 26 27 28 29 29 29 29 28 30 31 31 33 34 34 35 35 36 38 38 36 37 40 44 50 53 54 56 56 55 58 60 57 55 49 35 26 31 35 34 32 35 39 34 38 66 80 63 55 66 73 75 79 79 73 62 48 41 44 52 58 61
4 4 4 4 5 5 5 6 6 6 6 6 8 9 10 12 15 17 19 21 23 23 23 24 25 25 27 28 29 30 30 30 30 31 31 33 34 35 35 36 35 36 38 39 38 36 38 42 47 52 55 57 60 60 59 62 62 58 54 43 29 27 31 29 32 34 29 30 37 40 48 54 52 59 69 72 75 76 65 51 43 40 43 48 55 61 61
3 4 4 5 5 5 6 7 6 7 6 6 7 8 9 10 12 15 16 18 20 21 22 23 24 25 27 29 30 30 31 32 32 33 33 35 36 36 36 36 36 36 39 38 35 34 37 43 49 52 57 60 60 59 61 63 62 56 50 38 27 29 30 25 28 31 28 32 38 38 47 57 59 62 67 69 73 69 58 51 46 43 48 54 57 58 54
4 4 4 5 5 6 6 7 7 7 7 7 8 8 8 9 10 12 13 15 17 20 20 21 23 26 28 29 30 30 31 33 33 34 36 36 36 37 37 36 36 37 37 33 30 33 38 45 49 51 56 59 57 58 62 62 59 55 47 36 28 28 28 24 21 21 25 34 37 48 72 79 62 58 69 74 72 65 58 57 51 46 55 62 58 52 43
4 4 5 5 6 6 7 7 8 8 9 10 9 9 10 10 11 12 13 14 16 18 19 20 23 27 27 28 28 29 30 32 33 34 35 35 36 37 36 34 33 33 30 27 28 33 40 47 51 53 57 59 57 59 61 57 54 52 46 37 29 27 26 20 15 13 21 36 45 54 67 63 52 57 67 65 59 54 55 60 58 56 61 59 50 43 35
5 5 6 7 7 7 7 8 8 9 11 13 13 12 12 12 13 14 15 15 16 18 20 21 24 27 27 27 29 30 30 31 32 34 35 36 35 33 28 26 26 25 25 25 30 36 43 48 51 54 59 59 56 57 56 52 47 42 34 28 24 23 20 14 13 16 23 35 45 43 38 39 46 53 52 48 47 51 60 69 63 55 54 50 41 35 30
8 8 10 10 10 10 9 9 10 11 14 17 16 15 15 14 15 17 18 18 19 20 21 23 26 28 29 30 31 31 32 33 35 36 34 31 27 22 20 21 22 22 23 26 31 37 43 48 51 55 59 57 51 51 51 49 46 38 30 26 24 23 20 15 15 20 24 33 42 37 31 36 44 43 41 44 49 56 66 69 59 50 48 43 34 29 26
13 14 15 15 14 14 14 14 15 16 18 20 19 17 18 18 19 21 21 21 22 23 24 27 29 30 31 32 32 34 36 35 33 29 24 20 18 17 19 20 21 22 23 26 31 36 42 48 51 54 54 47 41 44 46 45 46 41 33 30 30 26 22 19 20 23 26 32 36 33 31 37 40 41 43 48 56 63 64 59 52 48 42 36 31 27 24
18 18 18 18 18 18 18 18 19 20 20 21 20 20 21 21 22 23 23 24 25 26 27 30 31 31 32 34 35 35 32 28 23 18 17 16 16 17 17 17 18 19 20 23 29 34 38 43 46 47 45 37 34 39 42 43 46 41 32 31 32 29 26 24 24 28 32 36 40 39 36 35 37 42 47 50 58 63 57 50 47 43 37 33 30 24 18
19 19 18 18 18 18 19 19 19 19 20 20 20 21 22 22 23 24 24 25 26 27 29 30 31 33 34 34 31 26 21 18 16 15 15 15 15 15 15 15 15 15 16 21 28 30 31 33 35 39 39 33 33 37 38 41 44 37 30 31 29 25 26 27 28 34 39 39 40 40 37 36 41 48 52 53 55 56 52 48 45 40 34 31 26 19 14
17 17 17 17 16 17 17 17 17 18 18 19 19 20 21 22 22 23 23 24 26 27 27 28 31 32 29 24 20 17 16 15 15 15 14 14 14 13 13 13 14 16 18 21 24 24 24 24 26 32 33 28 29 33 31 34 38 33 28 28 23 20 23 25 28 35 38 35 36 37 38 42 46 49 51 53 54 52 50 47 42 36 31 26 20 16 13
15 15 15 15 15 15 16 16 17 17 18 18 19 19 20 20 20 21 22 23 24 24 24 26 27 26 21 17 16 16 16 15 14 13 13 13 12 12 12 12 15 18 18 18 17 17 20 21 23 28 30 25 24 26 24 27 32 29 24 21 18 18 23 25 27 30 32 32 36 39 43 47 49 48 50 52 52 51 49 45 39 33 27 21 17 14 12
14 14 14 15 15 15 16 16 16 17 17 18 19 19 19 20 20 20 21 21 21 21 22 23 23 20 17 16 17 16 15 15 14 12 12 11 11 12 12 12 15 17 16 13 12 13 17 19 19 22 25 23 20 19 19 22 26 24 19 17 16 19 24 26 27 29 31 33 35 39 45 49 50 51 53 54 53 52 48 42 36 31 25 20 15 12 11
14 14 14 15 15 15 16 15 16 17 17 18 18 19 20 20 20 21 21 21 20 20 20 20 20 19 18 17 17 16 15 14 13 11 10 10 10 11 11 12 14 16 14 12 12 12 14 16 14 14 19 22 18 15 16 19 20 18 16 16 18 20 23 25 26 27 30 32 34 38 44 48 51 54 55 55 55 52 47 41 35 29 23 17 13 12 11
14 14 14 15 15 15 15 16 16 16 17 18 19 19 20 21 21 22 22 21 21 20 20 20 20 20 19 18 17 16 15 13 11 10 9 9 9 10 11 12 14 15 14 13 12 12 13 14 13 11 14 18 16 13 14 16 16 15 15 16 17 19 22 24 24 24 26 29 32 35 38 42 51 56 55 55 55 51 45 40 34 26 20 15 13 11 10
12 13 14 14 15 15 15 15 16 16 17 18 19 20 21 22 22 23 23 23 22 21 20 20 21 21 20 19 18 16 14 12 10 9 9 9 9 10 11 12 12 14 15 14 13 12 12 13 12 9 11 15 15 14 14 14 13 13 15 16 17 18 20 23 23 22 25 30 34 38 41 45 53 57 55 55 56 50 43 39 32 23 18 15 12 11 10
11 12 13 14 14 15 15 15 16 16 16 18 19 20 21 23 24 24 25 25 24 23 22 22 22 22 21 20 18 16 13 11 9 9 10 9 9 10 12 12 12 14 15 14 13 12 11 11 11 10 10 13 15 14 14 14 12 13 15 16 16 18 20 22 24 24 28 33 38 45 50 53 57 58 57 57 55 48 42 37 28 20 15 12 12 12 11
10 11 12 13 14 14 15 15 16 16 16 17 20 21 21 23 25 26 26 27 26 25 24 23 23 23 22 21 19 15 12 10 10 10 10 9 9 11 12 13 13 13 13 14 13 13 11 10 10 10 11 13 14 13 13 13 12 14 16 16 16 18 20 22 24 25 30 36 42 48 54 57 59 60 59 56 52 47 40 32 23 16 13 12 12 12 10
9 10 11 12 13 14 15 16 15 16 17 17 20 22 22 24 26 27 28 28 27 27 26 25 24 24 24 22 19 15 12 10 10 10 10 10 10 11 12 13 14 14 13 13 13 13 12 10 10 11 12 14 14 12 13 14 14 16 17 17 17 19 20 22 24 26 31 37 42 48 55 60 62 62 60 56 51 45 36 27 19 15 14 13 13 12 11
9 9 10 12 13 13 15 15 14 15 16 17 20 22 23 25 27 28 29 29 28 28 28 27 25 25 24 23 20 16 12 10 10 11 11 10 11 12 13 14 15 15 15 14 13 13 12 11 11 12 14 16 16 14 14 16 16 17 18 18 19 20 21 22 25 28 33 38 41 47 57 64 66 64 61 57 51 43 35 27 20 16 15 14 14 12 11
9 9 10 11 12 13 14 15 14 14 16 18 20 21 24 27 29 29 29 30 30 30 29 28 27 25 25 24 21 16 12 11 11 12 12 11 12 13 13 15 16 16 16 15 13 13 13 12 12 13 15 17 17 16 16 18 18 19 20 20 20 22 22 24 27 30 35 39 42 45 53 59 62 62 61 58 52 44 36 28 21 17 15 15 14 12 11
8 9 9 11 12 13 14 14 14 15 16 18 20 22 25 29 30 30 30 31 31 31 30 29 29 27 25 25 22 17 14 11 11 13 13 12 12 13 14 16 18 18 17 16 14 14 13 13 13 14 16 18 18 17 18 19 19 20 21 21 22 23 24 26 29 32 37 42 45 47 50 53 57 60 61 58 51 43 34 26 19 16 15 15 14 12 11
8 8 9 10 12 13 13 13 14 14 16 18 20 23 26 29 31 32 32 31 32 32 30 30 29 28 26 24 22 19 16 12 11 13 14 13 13 13 14 16 19 19 18 16 16 15 14 14 15 15 17 19 19 18 19 20 20 21 22 22 24 25 26 28 31 35 38 42 46 50 53 55 59 62 62 58 50 39 30 22 18 17 18 17 15 12 11
8 8 9 10 12 13 13 13 13 14 16 19 21 23 26 29 32 33 33 33 33 32 30 30 30 29 26 24 22 20 18 14 11 12 14 14 14 14 14 15 18 20 18 16 17 17 15 15 15 16 17 19 20 19 20 21 21 22 23 24 25 27 28 30 32 35 38 41 44 47 51 55 60 63 62 58 50 39 29 23 19 19 20 18 15 12 11
8 9 9 11 12 13 13 13 13 14 16 19 21 23 27 29 31 34 35 34 32 31 30 30 30 30 28 24 22 21 19 15 13 12 14 15 15 15 15 16 18 20 19 16 17 19 17 16 16 17 18 20 20 20 21 22 22 23 24 25 27 28 29 31 33 35 38 41 43 46 50 55 60 64 63 58 50 41 32 25 22 22 22 20 16 12 11
8 9 10 11 12 13 13 13 13 14 16 18 21 24 27 29 32 34 36 34 32 31 31 31 31 32 30 26 23 22 19 16 14 13 14 16 16 16 17 17 18 20 19 16 18 21 19 16 17 18 19 20 20 21 21 22 22 24 25 26 28 30 30 32 34 35 37 40 43 46 50 54 59 63 62 59 52 44 35 28 25 25 25 21 16 13 11
8 9 10 11 12 13 13 12 13 14 16 18 21 24 26 30 32 33 35 34 33 32 33 33 32 34 32 28 25 23 20 17 15 14 15 17 17 17 18 18 19 20 18 16 19 23 20 16 17 18 18 19 20 21 22 23 23 25 26 27 29 30 31 33 35 36 37 39 42 45 48 52 57 62 63 61 55 46 36 29 27 27 25 20 16 13 12
8 9 10 11 12 13 13 12 12 14 17 18 21 24 26 30 32 33 34 36 35 34 34 34 34 35 34 31 28 25 22 18 16 14 15 17 18 18 18 18 19 20 18 16 20 22 19 16 17 18 17 18 19 20 22 23 24 25 27 28 30 31 33 35 36 37 38 40 43 45 49 53 58 62 64 62 55 44 33 28 27 27 24 19 15 13 13
8 9 10 11 11 13 14 13 13 15 17 19 21 24 26 30 33 34 35 38 39 36 35 37 37 36 34 32 29 27 23 20 18 16 16 17 19 19 18 17 19 21 18 17 20 21 17 16 17 17 16 17 18 20 22 23 24 26 28 29 31 33 34 36 37 39 40 43 45 49 53 57 61 66 66 63 54 41 32 28 28 26 23 19 15 13 13
9 9 10 11 11 12 14 14 13 15 17 19 21 23 26 30 34 36 37 40 41 39 39 40 39 37 35 33 30 28 25 22 20 18 16 17 20 20 17 16 19 20 18 18 21 20 17 16 16 16 16 16 17 19 22 23 24 27 28 30 32 34 35 37 39 41 43 45 48 51 55 59 64 68 68 62 53 41 33 29 27 25 23 19 15 13 14
9 9 9 10 10 11 13 15 14 15 18 19 20 22 26 29 34 37 39 41 43 43 42 41 40 38 35 32 30 29 27 24 21 19 18 18 20 20 17 16 18 18 17 20 22 19 16 16 16 15 16 16 17 19 22 23 25 27 29 31 33 35 36 39 41 42 45 49 51 54 57 61 66 70 69 63 53 43 35 30 27 25 22 19 15 14 15
8 8 9 10 10 10 13 14 14 15 18 19 20 21 24 28 33 38 40 42 44 45 45 43 41 39 36 33 32 30 27 25 23 21 19 20 21 20 17 16 17 18 19 22 21 18 16 17 17 16 16 16 16 18 22 24 25 28 30 32 35 36 38 40 42 45 48 51 54 56 60 64 68 72 71 65 53 42 35 32 29 26 23 19 15 14 16
8 8 9 9 10 10 11 13 14 16 18 19 20 21 22 25 31 36 40 43 45 46 47 45 44 42 39 36 33 31 28 27 25 22 20 22 22 20 17 17 18 19 21 21 19 17 18 19 18 16 16 17 17 19 22 24 26 29 32 34 36 38 39 41 44 47 50 54 56 59 63 67 71 73 72 66 55 42 34 31 29 26 23 19 15 14 17
8 8 8 9 9 10 11 12 14 15 18 19 21 21 22 23 27 33 38 42 44 46 47 46 45 43 41 37 34 31 30 30 27 23 22 24 23 21 19 20 21 21 19 17 17 18 20 20 18 17 17 17 17 19 23 25 26 29 33 35 37 39 41 43 46 50 53 56 58 61 64 69 73 74 73 67 56 44 34 31 30 27 23 18 15 15 17
9 8 9 9 9 9 10 12 13 15 17 19 21 22 22 23 25 29 35 40 43 46 47 47 45 43 41 38 35 33 33 33 29 25 24 25 24 22 23 24 22 20 17 16 18 21 22 20 18 17 17 17 18 21 23 25 27 31 34 37 39 40 42 44 49 53 55 57 59 61 65 71 75 77 74 68 58 46 36 33 31 28 23 18 15 15 17
9 9 9 9 9 9 10 11 13 15 17 18 20 22 23 23 24 26 31 38 42 45 47 48 46 43 42 40 37 35 35 35 31 27 26 27 26 25 24 23 21 20 18 17 20 24 24 21 18 17 17 18 20 22 24 26 29 32 36 39 40 42 44 47 51 55 56 56 57 60 65 72 77 78 75 68 58 48 39 35 33 29 24 19 16 15 17
10 10 9 9 9 9 10 11 12 14 15 17 19 22 23 24 24 25 28 34 39 43 47 49 47 45 43 41 39 38 38 36 31 28 29 30 28 24 22 22 22 22 20 20 24 27 25 21 18 18 18 20 21 23 25 28 31 35 38 40 42 43 46 49 53 56 55 54 55 58 66 74 79 81 77 69 58 49 41 36 33 29 24 20 17 16 18
11 10 10 10 10 9 10 10 11 13 15 17 19 21 23 25 25 26 27 30 35 41 46 49 49 47 45 43 42 41 40 36 32 31 33 33 29 25 23 25 25 23 22 25 30 30 26 21 19 18 19 21 23 24 27 30 34 38 41 43 43 45 48 51 55 55 53 51 51 57 66 75 80 82 80 71 59 50 43 37 33 30 26 21 17 16 18
11 11 11 11 10 10 10 10 11 13 14 16 19 21 23 25 26 27 27 28 32 38 44 49 50 49 48 47 46 44 41 38 36 36 36 34 31 29 29 28 26 23 25 31 34 31 24 20 19 20 21 22 24 26 29 33 37 41 44 45 45 46 49 53 55 54 50 48 49 56 66 73 78 82 81 73 60 50 43 38 34 33 29 23 18 17 18
12 11 11 11 11 10 10 10 11 12 14 16 19 21 23 25 26 27 28 28 30 35 41 47 51 53 54 53 50 47 44 42 42 41 39 37 35 33 31 29 26 27 34 39 37 29 23 20 20 21 22 24 26 29 32 37 41 44 46 46 46 47 51 55 55 51 47 45 48 55 64 71 76 80 81 75 63 51 42 37 37 36 31 23 18 18 19
12 12 12 12 11 10 10 10 10 11 13 16 19 21 23 25 26 28 29 29 30 33 38 44 51 56 58 55 52 50 51 51 49 46 44 42 39 36 34 32 33 38 44 43 35 26 22 21 21 22 23 25 28 32 37 41 45 47 47 46 47 49 52 55 54 49 43 43 47 54 62 68 73 77 79 77 68 55 43 37 37 38 32 23 19 18 19
Wind_Speed
7 7 8 10 13 15 17 17 16 16 16 16 15 15 15 14 13 12 12 12 12 10 9 10 10 9 9 8 7 7 8 8 8 9 8 9 9 8 8 9 8 9 9 9 10 12 10 9 10 10 12 15 15 16 17 16 17 17 14 11 10 10 10 13 15 14 9 7 4 6 6 5 9 13 16 13 10 8 6 7 10 9 8 6 3 2 5
8 9 11 13 15 15 16 15 15 15 15 15 15 14 13 13 12 11 12 12 11 9 9 10 9 8 8 7 7 8 8 8 8 8 8 9 9 8 8 8 8 8 9 9 11 12 11 11 11 12 15 16 16 17 17 17 18 16 11 9 10 10 10 11 12 9 4 2 2 4 7 10 14 17 18 15 11 9 8 8 9 7 4 3 1 1 3
10 11 13 14 14 14 14 15 15 15 15 14 13 13 12 12 11 11 12 11 9 9 9 9 8 8 7 7 8 8 8 8 8 8 8 8 8 7 7 7 7 8 8 9 11 13 13 13 12 13 16 16 16 17 17 18 17 12 9 11 12 11 9 9 7 3 2 4 5 8 13 16 18 18 16 13 11 9 8 8 7 4 3 4 3 4 6
11 12 12 13 13 14 14 15 15 14 14 13 13 13 12 11 10 10 11 9 8 9 9 8 7 7 7 7 8 8 8 9 8 8 7 8 8 7 6 7 7 8 9 10 11 14 15 15 14 15 16 16 16 17 17 17 14 10 10 12 11 9 8 7 5 5 7 10 13 15 17 17 16 15 13 11 10 10 10 8 6 5 6 7 5 7 11
10 11 12 12 13 14 14 14 13 14 13 13 13 13 12 12 11 11 10 8 8 9 9 8 8 8 8 8 8 8 8 9 8 8 7 7 7 7 6 6 7 8 10 11 13 15 16 16 16 16 16 16 17 18 17 14 11 10 10 9 9 9 8 6 5 7 10 13 14 14 12 12 12 11 11 10 10 10 9 7 4 5 7 6 6 10 17
10 11 12 12 13 13 13 13 13 14 14 14 14 13 13 12 12 12 11 9 9 9 9 8 8 8 8 8 8 8 9 9 8 8 7 7 7 7 6 6 8 10 12 13 14 16 17 17 18 18 17 17 18 18 15 12 9 9 9 8 9 9 8 7 8 10 11 10 9 9 10 10 10 9 10 10 10 9 8 6 4 5 7 9 12 17 23
10 11 12 12 13 13 13 14 14 14 14 14 14 14 13 13 12 12 11 10 10 9 9 9 9 9 9 8 8 9 9 10 9 8 8 8 7 7 7 8 10 12 13 14 15 17 18 19 19 20 19 19 20 17 13 9 8 8 9 9 10 10 10 11 10 10 9 7 7 10 11 11 10 10 10 10 10 10 9 7 6 9 12 15 20 24 27
11 11 12 13 14 14 14 14 14 14 14 14 14 14 13 13 12 12 11 11 10 9 9 10 9 9 9 9 9 10 10 10 10 9 8 8 7 7 8 10 12 14 15 15 15 17 19 20 20 20 19 19 19 14 10 7 7 8 10 11 11 12 12 11 9 8 7 6 8 12 12 12 11 10 9 9 9 10 9 9 11 14 17 20 25 29 32
12 13 13 14 14 14 14 14 14 14 14 14 13 13 13 13 12 12 11 10 10 10 10 10 10 10 10 10 10 10 10 10 9 8 8 8 7 8 10 12 14 15 15 16 16 17 20 21 20 19 18 17 15 10 6 5 7 9 12 13 14 13 12 10 8 6 4 5 10 13 13 13 12 10 10 10 11 11 11 13 15 19 22 26 30 34 35
13 13 14 14 14 14 14 15 15 14 14 14 14 13 13 12 12 12 11 10 10 10 10 11 11 10 10 10 10 10 10 10 9 8 8 8 8 10 12 13 15 16 16 16 17 18 21 21 20 18 16 14 11 7 4 5 9 11 13 15 15 14 12 10 9 7 5 6 11 14 13 12 9 9 11 12 13 14 15 16 19 23 27 30 34 36 35
13 13 14 14 14 15 15 15 15 15 14 14 14 13 13 12 12 11 11 10 10 10 10 10 11 10 10 10 10 10 10 9 9 8 8 8 10 11 13 15 16 17 17 16 17 20 21 21 18 16 14 11 8 5 4 7 11 12 14 16 14 13 12 10 10 11 8 7 12 13 9 5 5 8 12 13 15 18 20 21 24 28 31 33 36 35 31
14 14 15 15 15 16 16 16 16 16 15 15 14 14 13 13 12 11 11 10 10 10 10 10 11 10 10 10 10 10 10 9 9 8 8 9 11 12 15 16 17 18 17 17 19 21 21 19 16 14 11 9 7 6 6 8 11 13 15 14 12 12 12 10 12 13 9 9 13 10 2 3 7 12 14 14 16 18 21 26 29 32 35 37 35 30 28
14 15 16 16 16 17 17 17 17 16 16 16 15 14 14 13 12 11 11 10 10 10 10 10 11 10 10 10 10 10 10 9 9 9 9 10 12 14 16 17 18 18 17 18 20 21 18 16 13 11 9 8 8 7 8 9 11 13 14 13 13 14 12 11 14 14 10 11 11 5 5 10 13 11 11 13 15 18 25 32 35 37 38 36 31 29 33
15 16 16 17 17 17 17 17 17 17 17 16 16 15 15 14 13 12 12 11 10 11 11 11 11 10 10 10 10 10 9 9 9 9 9 11 14 16 16 18 19 18 17 19 20 18 16 13 10 9 8 7 8 8 9 11 13 14 14 14 15 15 13 14 15 13 11 13 11 8 9 10 8 7 9 12 16 21 29 36 39 39 36 31 29 34 39
16 16 16 17 17 17 17 17 17 17 17 17 17 16 15 15 14 13 13 12 11 10 11 11 11 10 10 10 10 10 10 10 10 10 10 13 15 16 17 18 19 18 18 19 17 15 13 10 7 7 6 6 8 9 9 12 14 14 15 15 17 16 15 15 16 14 13 13 10 7 5 4 5 7 10 13 18 24 30 36 39 35 28 27 33 40 43
16 16 17 17 17 17 17 17 17 17 18 18 17 16 16 15 14 13 13 12 11 11 11 11 10 10 10 11 11 11 11 11 11 11 13 14 15 16 18 19 18 17 17 17 15 13 11 9 7 7 5 6 9 8 8 11 12 12 12 12 14 14 13 15 18 17 16 13 7 3 3 5 7 10 12 15 22 29 32 31 29 27 27 33 40 41 42
17 17 17 18 18 18 17 17 17 18 19 19 18 17 16 15 15 15 14 13 13 11 11 10 10 10 11 11 12 12 13 13 14 14 15 16 16 17 18 18 17 16 15 14 12 11 9 8 8 7 5 8 9 7 7 10 11 10 10 11 14 16 17 20 23 21 18 14 9 6 6 8 10 13 17 21 27 31 25 16 20 29 35 39 41 40 42
17 18 18 18 18 18 18 18 18 19 19 20 19 18 17 16 16 16 15 14 13 12 11 11 11 12 12 13 13 14 14 15 15 16 16 17 17 17 16 15 15 14 13 12 11 10 10 10 9 8 7 9 9 7 7 9 11 12 14 15 18 20 22 23 24 22 19 15 13 11 10 9 11 17 24 28 29 27 19 17 27 38 39 38 39 41 42
17 17 18 18 18 18 18 18 19 19 19 19 19 18 17 17 17 16 15 15 14 12 11 12 13 13 13 14 14 15 16 16 17 17 17 17 17 16 14 14 14 13 12 12 11 11 11 11 10 9 8 9 9 8 8 9 10 12 16 17 18 21 22 22 23 23 19 17 18 15 11 11 18 25 30 31 28 27 27 30 36 38 38 38 40 40 41
17 17 17 18 18 18 18 18 19 19 19 19 19 18 18 18 17 17 16 15 14 13 13 13 13 13 14 14 15 16 17 17 17 18 18 17 17 15 14 14 14 13 12 12 11 12 12 11 10 9 9 10 10 9 9 10 10 12 15 17 18 20 20 19 21 22 18 15 14 10 11 20 28 31 32 32 31 31 34 36 37 37 38 40 40 40 42
18 18 18 19 19 19 19 19 19 19 20 20 20 20 19 19 18 17 16 15 14 14 13 13 14 14 15 15 16 16 17 17 18 18 18 17 17 16 15 15 15 14 14 13 12 12 11 11 10 9 9 10 10 8 9 10 10 12 15 16 17 18 17 16 18 18 14 13 12 12 18 27 31 31 32 34 33 34 35 37 37 38 38 39 40 41 42
19 19 20 20 20 20 20 20 20 20 20 21 21 21 21 20 19 18 17 17 15 14 14 15 15 15 15 16 17 17 18 18 18 18 18 18 18 17 17 16 15 15 14 13 13 13 12 11 10 9 8 10 10 9 10 10 10 11 15 16 17 18 18 18 18 17 15 17 18 19 24 28 30 32 33 33 33 34 35 35 36 37 38 39 40 41 42
20 20 19 19 19 19 19 20 20 20 20 21 22 22 22 21 21 20 19 18 17 16 16 16 16 15 16 17 18 18 18 19 19 19 19 19 18 18 17 16 15 14 14 13 13 13 12 11 10 9 8 10 11 10 11 11 11 11 15 17 19 19 19 19 20 20 20 21 21 21 23 27 31 33 32 32 34 34 34 34 36 37 38 39 40 41 43
19 19 19 18 18 18 19 19 20 20 20 21 22 23 22 22 22 22 20 19 18 18 17 16 16 16 18 19 19 19 19 20 20 20 20 19 19 18 17 16 15 13 13 13 13 13 12 11 11 10 9 10 11 11 12 12 12 13 16 19 20 19 19 20 20 21 22 23 23 24 26 28 30 31 32 33 34 33 33 35 36 36 37 38 39 41 43
18 18 18 18 18 18 18 19 20 20 20 20 22 23 23 22 22 22 21 19 18 19 18 16 16 18 19 19 19 19 20 20 20 19 19 18 18 17 16 16 14 13 13 13 13 13 13 11 11 12 11 10 11 12 13 13 14 15 17 20 20 20 21 21 22 23 23 24 26 28 28 29 30 32 33 34 33 33 34 35 35 36 37 38 39 41 42
17 17 17 17 17 17 18 19 20 21 21 21 22 23 23 22 21 22 22 20 18 18 18 17 17 18 19 19 19 19 20 19 19 18 18 17 17 16 15 14 13 12 12 12 12 13 13 11 11 13 12 11 12 14 14 15 16 17 19 20 21 21 22 24 25 26 26 27 30 32 33 33 33 34 35 35 34 35 35 35 36 37 37 39 40 41 42
16 16 16 17 17 17 18 18 20 21 21 22 22 22 23 22 21 22 22 21 18 18 17 17 17 17 18 18 19 18 18 18 18 17 17 17 16 16 14 13 12 12 11 11 12 13 13 12 12 14 15 14 14 15 16 17 18 19 20 22 23 24 25 26 28 29 30 31 34 36 37 36 36 37 38 37 35 36 36 37 37 37 38 40 41 41 42
15 16 16 16 16 17 18 19 19 20 22 22 22 22 22 22 22 22 21 21 20 19 17 17 17 17 17 18 18 17 17 17 17 17 17 16 16 15 14 13 12 11 11 11 13 14 13 12 13 15 17 16 16 16 17 18 20 21 22 24 25 26 27 28 30 31 32 33 34 35 36 37 37 37 38 37 36 36 37 37 38 38 39 40 41 42 43
15 15 15 15 16 16 17 19 19 20 21 23 23 22 21 21 22 21 21 21 21 20 18 16 16 17 18 18 18 17 17 17 17 16 15 15 15 14 13 13 12 11 11 13 14 13 13 14 14 16 18 18 17 17 18 20 21 22 24 26 27 27 28 29 30 31 32 33 34 35 36 37 37 37 37 37 36 36 37 37 38 38 39 40 42 43 44
16 15 15 15 16 16 17 18 19 19 20 22 22 20 20 21 22 22 22 23 22 21 19 17 16 16 17 18 17 17 17 16 15 14 14 14 14 13 12 12 11 11 12 13 14 13 14 14 15 17 19 19 19 19 19 21 22 24 25 27 28 28 29 30 30 32 33 34 35 35 36 36 37 37 37 36 36 36 37 37 38 38 40 41 43 43 44
16 16 15 15 16 16 17 18 18 19 20 21 21 20 21 22 22 22 23 23 22 21 19 18 15 15 16 18 17 16 15 14 13 13 13 13 13 12 11 11 11 11 12 14 14 13 14 14 15 17 19 20 20 20 21 22 24 26 27 28 29 29 30 30 31 32 33 35 36 36 35 35 36 36 36 36 36 36 37 37 38 39 41 42 43 43 43
16 16 16 15 16 16 17 17 18 19 20 20 21 21 21 21 21 22 22 22 22 20 19 18 17 15 15 17 17 15 13 13 13 12 12 12 12 11 11 12 11 11 11 14 14 14 14 15 16 17 19 20 21 21 22 24 26 27 27 29 29 29 30 31 32 33 34 36 37 37 36 35 36 36 36 36 36 36 37 38 38 39 40 41 42 41 41
16 16 16 15 15 16 17 17 18 19 19 20 20 21 21 20 20 21 22 22 21 20 19 18 18 16 14 15 15 14 13 12 12 12 12 11 11 11 11 11 12 10 11 13 15 15 15 15 16 18 20 21 22 22 23 24 26 27 28 29 30 30 31 32 33 34 35 36 38 39 38 38 38 37 37 37 36 37 37 38 38 39 40 41 41 40 40
16 16 15 15 15 16 17 17 18 19 19 19 20 21 20 20 20 21 22 21 21 19 18 17 17 16 14 14 14 14 13 12 11 12 12 11 11 11 11 11 12 11 11 13 15 16 16 16 16 18 20 22 23 23 24 25 27 28 29 30 31 31 32 33 33 35 36 38 38 39 39 39 39 38 37 37 37 37 37 38 39 40 40 41 41 41 41
16 16 15 15 15 16 17 17 18 19 19 19 20 20 20 19 19 20 21 21 20 19 17 17 17 16 15 14 14 13 13 11 11 11 12 11 11 11 11 11 12 12 11 12 15 16 16 15 16 18 20 22 23 24 25 27 28 29 30 31 32 33 34 35 35 36 37 38 39 39 39 39 39 38 37 37 37 37 38 38 39 41 41 42 42 42 41
16 15 15 15 15 16 17 17 17 18 18 18 19 20 19 18 18 19 20 20 19 18 17 17 17 16 15 14 14 13 12 11 11 10 11 11 10 10 10 11 11 11 11 11 14 16 16 15 16 17 19 22 24 25 27 28 29 30 31 32 33 34 35 36 37 38 38 39 40 40 40 39 39 38 38 37 37 38 38 39 40 41 42 42 43 42 42
16 15 15 16 15 15 16 17 17 17 18 18 18 18 18 17 17 18 18 18 18 19 19 18 17 17 16 15 14 13 11 11 10 10 11 11 11 10 11 11 12 12 11 11 15 17 16 16 17 17 19 23 26 27 28 29 30 31 31 32 33 34 35 36 38 39 39 40 40 40 40 40 40 39 39 38 38 39 39 40 41 42 43 43 43 43 42
16 15 15 16 15 15 16 17 17 17 18 18 17 17 17 17 16 16 17 18 19 20 20 18 18 17 16 14 13 13 11 10 10 10 11 11 11 11 11 12 12 12 11 12 15 17 16 16 17 18 20 24 27 28 29 30 31 31 32 33 34 35 36 37 38 39 40 40 40 41 41 41 41 40 39 39 39 39 40 40 41 42 43 43 43 42 42
16 15 15 16 16 14 15 17 17 16 17 18 17 16 17 17 17 17 18 20 20 20 20 20 19 18 16 14 13 13 12 11 10 10 11 12 12 12 12 12 13 13 12 12 15 17 17 18 19 19 22 26 28 29 30 31 32 32 33 34 35 36 37 37 39 40 40 41 41 42 42 41 41 40 40 39 39 39 39 40 41 42 42 42 42 41 41
16 15 14 15 16 14 14 16 17 16 16 18 17 16 16 17 18 18 19 20 21 21 21 21 20 18 16 14 13 12 12 11 10 10 11 12 13 13 13 13 14 14 13 13 16 18 18 19 20 21 24 28 30 30 31 32 33 34 35 35 36 37 37 38 39 40 40 41 41 42 42 41 41 40 40 39 38 38 38 39 40 41 41 41 41 40 40
16 15 14 15 16 15 13 15 17 16 16 18 18 17 17 18 19 19 20 20 21 22 22 21 20 18 17 15 14 12 12 12 11 10 11 12 13 13 13 14 15 14 13 14 18 19 19 20 21 23 26 30 31 31 32 33 34 35 36 36 37 37 38 39 39 40 41 41 41 42 42 41 41 40 40 39 39 38 38 39 40 41 41 41 40 39 39
16 16 14 15 16 15 13 14 17 16 16 18 19 18 17 19 19 20 20 21 22 22 22 21 20 19 18 17 15 14 13 13 12 11 11 13 14 14 14 14 14 14 14 17 19 19 20 21 23 25 28 31 32 32 33 34 35 36 36 37 37 38 38 39 40 40 41 41 41 42 42 42 41 40 40 39 39 39 39 39 40 40 41 40 40 39 38
16 16 15 14 16 16 13 13 17 17 16 18 20 19 18 19 19 19 20 21 21 22 22 21 21 20 19 18 16 15 14 14 13 12 12 13 14 15 14 14 14 15 17 18 18 19 20 22 25 28 31 32 32 32 33 34 35 36 37 37 38 38 39 40 40 41 41 41 41 42 42 42 41 41 40 39 38 38 39 39 40 40 40 40 40 39 38
16 17 16 14 16 17 14 13 16 18 17 18 20 19 18 19 19 18 19 20 21 21 22 22 20 20 19 18 17 16 15 14 14 14 13 13 14 14 14 14 16 17 18 18 18 20 21 23 26 30 32 32 32 33 33 34 36 37 38 38 38 39 39 40 40 41 41 41 41 41 41 41 41 41 40 39 38 38 38 39 39 40 40 40 39 39 38
16 18 17 15 16 18 16 14 16 19 19 19 20 20 19 19 19 18 19 21 21 22 22 22 20 20 19 18 17 16 16 15 15 15 14 15 15 14 14 16 18 18 17 17 19 21 23 26 29 32 32 32 32 33 33 34 36 38 38 38 39 39 39 40 41 41 41 41 41 41 41 41 41 40 40 39 38 38 38 38 39 39 39 39 39 38 38
17 18 18 16 17 18 18 17 17 18 19 19 20 20 20 20 20 19 20 21 22 22 23 23 22 21 20 19 18 17 17 16 15 15 15 15 16 16 16 17 17 16 16 18 21 23 26 30 32 32 32 32 32 32 33 34 36 37 38 38 38 39 39 40 41 41 41 41 41 41 40 40 40 40 39 39 39 38 38 38 39 39 39 39 38 38 37
17 18 18 18 17 18 19 18 18 18 19 19 20 20 20 21 20 20 20 21 22 23 24 24 23 22 21 19 19 18 17 16 16 16 15 15 17 17 17 16 15 14 16 20 23 26 29 31 32 32 32 32 32 32 33 34 36 37 38 38 38 39 40 40 41 41 41 41 41 41 41 40 40 39 39 39 38 38 38 38 39 39 39 39 38 37 37
17 18 19 19 19 19 19 19 19 19 20 20 20 20 21 21 21 21 21 21 23 24 25 25 24 23 21 20 19 18 17 16 16 16 16 16 16 16 15 15 16 17 19 22 26 29 31 32 32 32 32 31 31 32 33 35 36 37 37 38 38 39 40 41 41 41 41 41 41 41 41 41 40 39 38 38 38 38 38 38 39 39 38 38 38 38 38
18 18 19 20 20 20 20 20 20 19 20 21 21 21 22 22 22 22 22 22 23 24 25 26 25 24 22 21 20 19 17 16 16 17 17 16 16 16 16 18 19 20 21 24 28 31 32 32 32 32 31 31 31 32 33 34 36 37 37 38 38 39 40 41 41 41 42 41 41 42 42 41 41 40 39 38 38 38 38 38 38 38 38 38 38 38 38
18 19 19 20 21 21 21 21 20 20 21 21 22 22 23 23 23 23 24 23 23 25 26 27 26 25 23 22 21 19 17 16 17 18 18 17 16 17 18 20 21 22 24 27 30 31 31 31 32 31 31 31 31 32 33 34 35 36 37 38 38 39 40 41 41 41 42 42 42 42 42 42 42 41 40 38 38 38 38 38 38 38 38 38 38 38 38
19 20 20 21 21 22 22 21 21 21 21 22 22 23 24 24 24 24 24 24 24 25 26 27 27 26 25 24 22 20 19 20 20 19 18 17 17 19 20 21 22 23 26 28 30 30 31 31 31 31 31 31 31 32 34 35 35 36 37 37 38 39 40 40 41 41 42 42 42 43 43 43 42 42 40 39 38 37 37 38 38 38 38 38 38 38 38
20 21 21 22 22 23 23 22 22 21 22 22 23 24 24 24 24 25 25 25 25 25 26 27 27 26 25 25 24 23 22 22 21 20 19 18 19 20 21 22 23 24 26 28 29 30 30 30 30 30 30 31 31 33 34 35 35 36 37 37 38 39 39 40 41 41 41 42 42 43 44 44 43 42 42 40 39 38 37 37 38 38 38 37 37 37 37
Wind_Direction
334 332 329 325 325 324 324 324 326 329 330 329 328 327 327 330 330 332 334 335 337 336 336 337 337 342 345 348 353 353 351 349 349 350 351 350 350 350 350 353 356 359 3 11 11 6 3 355 347 343 339 333 326 322 322 322 325 327 326 323 320 313 301 295 305 316 310 297 273 216 215 271 304 313 320 326 327 314 290 280 287 290 287 280 285 298 249
337 334 330 327 325 325 326 328 331 331 329 329 330 332 335 338 338 338 339 339 340 339 340 340 342 349 354 358 1 359 356 355 354 354 354 354 354 354 356 360 4 9 13 14 9 5 2 352 342 337 334 330 326 324 325 326 328 328 326 324 323 317 308 304 314 326 326 285 236 236 261 293 306 311 315 320 323 317 304 294 290 282 272 278 275 270 288
333 330 327 326 327 329 331 333 332 333 335 337 340 342 344 344 343 342 342 343 343 344 346 348 353 0 5 7 5 3 1 360 358 357 357 357 358 359 4 8 11 15 15 8 1 358 355 349 340 335 333 331 328 327 327 329 328 326 323 321 320 318 310 304 306 308 295 290 289 290 294 301 306 308 309 312 311 311 312 308 296 265 254 284 277 268 303
331 330 330 331 332 334 336 337 339 341 345 348 349 351 351 351 350 350 349 350 353 355 357 1 6 9 12 12 9 7 5 1 0 1 1 360 0 3 7 9 12 11 4 358 355 353 350 346 341 337 335 333 330 328 327 328 326 323 322 324 326 327 322 312 297 272 277 285 288 292 298 302 304 303 303 306 307 310 318 319 302 276 287 297 280 276 299
335 336 337 337 339 342 345 348 351 354 356 358 360 2 1 0 1 2 3 3 2 4 9 11 12 14 16 14 11 8 5 3 1 2 2 360 360 2 3 4 5 360 353 350 349 348 346 344 341 339 335 332 329 327 327 327 325 326 330 335 339 336 330 326 311 292 290 292 292 298 307 310 306 301 301 304 307 311 318 322 310 302 308 300 277 290 305
342 343 346 349 352 356 360 2 4 6 7 8 8 9 8 8 9 11 13 12 10 11 14 14 15 18 17 13 11 8 6 5 2 1 0 357 356 358 359 358 356 353 350 346 343 343 342 341 340 336 333 330 329 328 328 327 329 336 342 344 344 340 332 325 319 309 303 302 305 316 326 324 313 301 296 297 301 309 319 325 317 312 310 302 300 309 313
354 357 1 5 9 11 11 12 13 13 13 12 13 13 11 12 13 13 13 14 14 16 16 13 14 16 14 12 11 8 6 3 360 359 358 354 353 355 354 353 352 351 348 343 340 342 341 339 337 333 330 329 329 330 331 329 337 350 353 349 347 345 335 328 325 317 307 307 322 330 330 322 308 296 293 298 304 310 315 315 312 312 313 312 312 314 315
12 15 17 17 18 17 15 15 14 13 13 12 13 12 11 12 13 12 12 12 13 14 14 12 12 12 11 11 9 7 4 1 358 356 355 352 352 352 351 350 349 348 345 341 339 341 339 337 334 330 328 327 328 331 334 336 351 359 355 351 349 345 338 335 331 317 298 305 329 333 327 314 302 297 295 297 302 304 303 305 310 314 316 314 313 313 315
25 24 22 20 18 16 13 12 10 10 9 9 9 9 9 10 10 11 12 11 12 12 10 10 10 10 10 8 6 5 2 360 358 354 351 351 348 345 345 346 345 345 342 338 336 337 336 335 331 328 327 329 330 334 338 351 1 356 351 351 351 348 344 343 341 325 293 308 329 328 317 302 290 285 288 297 308 313 311 311 314 317 318 316 316 318 319
26 23 20 17 14 12 10 8 7 6 6 5 5 5 5 7 8 9 10 11 11 10 7 8 8 9 8 5 4 4 1 359 357 353 351 347 340 339 342 342 342 342 338 335 335 335 334 333 330 329 330 333 335 338 347 0 358 352 352 353 352 353 355 357 2 356 320 311 323 320 309 295 281 284 301 313 321 321 316 313 315 318 319 319 319 321 322
23 20 17 15 13 11 10 8 7 6 5 4 4 3 3 6 7 7 8 9 8 6 5 7 7 7 6 4 3 3 1 0 359 354 349 343 339 338 339 339 340 339 337 334 334 335 334 334 332 333 336 338 338 339 349 358 356 354 355 357 359 3 5 5 5 359 342 323 325 322 306 276 282 307 315 317 320 320 317 315 316 317 318 320 321 322 322
23 21 18 17 15 13 13 11 10 10 8 7 6 5 5 7 7 6 7 8 7 4 4 5 5 5 5 3 2 3 2 1 360 354 346 340 338 338 337 339 340 339 337 336 335 336 336 336 335 337 340 342 342 341 344 349 353 356 358 1 8 12 11 8 1 356 348 337 339 337 298 266 304 310 313 317 318 317 313 311 314 317 320 322 323 322 322
26 23 21 19 17 16 16 15 14 14 12 11 11 10 10 10 9 8 8 8 6 4 3 4 3 3 4 3 2 2 1 1 359 351 341 337 337 337 338 340 341 340 338 336 336 338 338 339 340 340 342 346 345 339 337 342 350 357 0 5 13 16 16 12 2 357 350 342 344 334 287 300 311 313 317 319 315 311 313 315 318 321 322 323 322 322 321
27 24 22 20 19 19 19 18 18 18 18 17 17 16 14 13 11 10 10 10 6 3 2 4 3 2 3 4 2 360 358 356 354 347 339 338 338 338 339 341 342 341 339 337 338 341 342 343 345 342 341 347 344 336 335 342 350 356 0 8 14 14 14 11 7 4 355 342 332 312 298 303 312 323 326 322 317 320 324 322 319 319 321 321 320 320 319
28 26 25 23 23 22 21 21 22 22 22 21 19 18 16 15 14 12 11 10 8 4 3 3 4 3 3 1 358 356 353 350 350 347 340 339 340 340 341 342 341 340 339 340 343 346 347 349 352 348 351 357 349 338 336 344 350 354 1 9 10 7 6 7 6 5 1 353 337 321 315 307 315 328 329 325 322 323 323 318 314 316 319 319 318 318 317
31 29 28 27 26 25 24 25 24 23 22 20 18 17 16 15 15 14 12 11 10 6 4 4 7 6 2 357 353 352 350 348 351 351 346 345 346 344 341 341 341 341 342 344 348 351 354 358 360 0 7 4 352 342 339 346 353 358 3 3 1 1 360 358 3 9 8 2 345 304 278 293 310 320 323 321 319 319 319 315 312 316 319 317 317 317 318
34 33 31 29 28 26 26 24 22 20 18 16 15 15 15 15 15 14 12 11 9 8 10 12 11 6 360 356 354 353 354 355 358 357 353 350 349 345 342 343 345 346 347 351 355 359 3 7 12 19 21 6 358 352 346 350 357 2 2 355 354 359 359 358 5 10 5 355 342 308 286 291 301 311 316 317 318 319 319 311 310 316 317 316 317 319 320
36 33 31 29 27 26 24 21 18 16 14 13 14 14 14 13 12 10 10 10 9 12 17 16 10 3 0 0 0 0 1 2 1 359 355 352 351 349 349 352 353 353 356 359 3 11 15 16 22 30 25 11 8 7 358 357 360 2 1 358 357 360 360 359 2 3 358 351 338 319 303 296 302 313 317 319 321 320 313 304 310 316 317 317 319 320 320
35 32 30 28 26 25 22 19 17 14 13 14 14 14 12 10 9 9 11 11 10 15 19 14 8 6 7 8 8 7 6 4 2 0 358 358 358 359 360 2 2 3 5 6 11 20 24 25 29 30 23 17 19 19 10 4 4 4 3 2 0 359 357 356 356 356 354 345 333 323 312 311 317 319 320 322 323 319 313 312 314 316 317 319 320 321 321
36 34 32 30 29 27 25 22 20 19 18 18 18 16 14 13 13 13 13 12 12 14 16 14 12 14 15 15 13 10 7 6 5 5 5 6 6 6 9 12 10 10 12 15 21 27 30 33 35 32 25 21 20 17 8 3 4 5 4 3 360 356 354 351 351 351 347 338 334 328 315 318 322 322 322 323 322 318 316 317 319 319 320 321 321 322 322
40 38 36 34 33 31 29 28 26 25 24 23 22 21 19 19 19 15 13 16 16 15 18 21 21 22 21 19 16 13 12 12 11 10 9 10 12 14 17 18 15 16 20 25 32 36 38 40 40 38 31 22 18 14 8 4 2 0 1 360 356 353 350 345 346 346 338 328 327 319 313 318 321 321 321 322 320 319 319 320 321 321 321 321 321 321 320
42 40 38 37 36 34 33 31 30 29 28 26 25 24 22 22 21 18 19 24 23 20 25 30 29 29 27 22 20 19 17 15 14 13 14 16 18 20 22 23 22 23 30 37 43 45 45 43 41 40 33 22 18 16 13 8 1 355 356 355 352 350 348 343 341 340 329 321 321 320 319 320 320 320 321 321 320 321 322 321 321 321 321 321 321 321 320
43 41 39 38 37 36 35 33 32 31 30 28 27 25 24 23 22 22 25 29 26 25 31 35 35 33 29 25 24 22 19 18 18 18 19 22 24 25 27 29 30 33 40 47 49 49 47 43 39 35 28 21 18 16 13 7 358 351 351 351 349 349 347 343 340 336 330 325 326 326 324 321 320 321 323 322 323 324 324 323 322 321 321 321 321 321 322
42 41 39 38 37 36 36 35 33 32 31 29 27 25 24 24 24 25 28 29 27 28 32 37 37 33 28 27 26 23 21 21 22 22 23 25 28 30 31 32 35 42 49 51 49 46 44 41 35 28 22 18 17 15 11 4 357 352 350 350 349 347 344 340 337 335 332 329 329 329 327 324 323 323 324 325 327 327 325 323 322 321 321 322 322 322 322
40 39 38 37 36 36 36 35 34 33 31 29 28 25 25 26 26 27 29 29 28 29 32 34 35 31 28 27 25 23 23 24 24 26 27 28 31 34 34 36 39 46 52 50 43 39 38 37 30 24 20 16 14 14 9 1 356 355 352 349 346 343 341 337 335 336 334 331 331 331 330 329 328 327 328 330 330 327 325 323 323 322 323 323 323 323 323
36 36 35 35 34 34 34 34 33 31 30 29 28 26 26 27 28 29 30 29 29 30 30 31 33 31 28 27 25 24 25 26 27 28 30 32 34 36 38 40 44 48 50 44 35 33 34 32 26 23 22 18 13 11 6 360 357 356 351 347 344 341 339 336 334 336 336 335 334 334 334 334 334 332 332 333 331 328 326 325 325 325 324 324 324 324 324
33 33 32 32 32 32 32 32 31 29 28 28 27 27 27 28 29 31 31 30 30 31 29 29 33 32 30 29 27 26 28 29 30 31 33 34 36 37 39 43 45 47 45 36 29 29 30 28 22 20 21 19 12 7 4 360 358 354 349 346 343 340 338 337 335 336 339 338 337 336 336 337 337 334 333 333 331 328 327 327 327 326 325 325 325 325 326
31 30 30 29 29 29 30 30 29 27 27 27 26 26 27 28 29 31 31 30 33 34 31 30 33 34 34 32 31 30 31 32 32 33 33 34 35 36 38 41 41 42 38 30 26 26 24 21 20 19 18 16 9 5 3 359 356 352 347 344 342 340 338 337 335 337 338 337 337 336 336 336 336 333 332 332 331 329 328 328 327 327 326 326 327 328 329
29 29 29 28 28 28 28 28 26 25 25 26 25 25 26 27 29 31 31 31 33 34 32 31 35 37 36 35 33 33 33 33 33 33 32 32 33 33 35 36 35 34 30 25 23 21 17 16 17 16 15 12 7 4 1 356 353 350 346 343 342 339 337 336 335 335 336 335 336 337 337 336 335 333 333 332 331 329 328 328 328 327 327 328 330 331 331
28 28 28 28 27 27 26 26 24 23 24 25 24 23 24 26 29 30 30 30 32 32 31 32 36 39 38 37 36 35 34 32 32 31 30 31 31 30 31 32 30 27 24 22 19 16 12 12 14 13 12 9 5 2 359 354 351 349 345 342 341 339 337 336 335 334 334 335 337 338 338 336 334 333 333 332 331 329 328 328 329 329 329 331 333 332 331
27 27 27 27 26 26 25 24 21 20 22 24 22 21 24 28 29 29 29 30 30 31 31 32 35 38 38 38 38 37 35 33 32 31 29 28 27 26 26 25 22 20 19 17 14 11 9 11 12 10 8 6 4 0 356 353 350 347 344 342 340 338 336 335 335 335 335 335 337 339 339 336 334 334 333 332 331 330 330 329 330 331 332 333 333 332 332
26 26 26 26 26 24 23 21 19 19 21 21 19 20 24 28 28 28 28 29 29 29 30 31 34 37 36 35 36 37 36 34 31 30 28 24 22 21 21 18 14 12 12 12 9 7 7 9 8 6 4 4 2 359 355 351 348 345 342 341 339 338 337 336 336 336 336 336 337 339 340 338 336 335 334 333 332 331 330 331 332 332 333 333 333 332 333
25 25 25 25 25 23 21 19 17 18 19 18 17 19 23 27 27 27 28 27 27 26 26 28 34 38 37 35 35 35 35 34 29 25 24 21 17 17 16 12 8 6 5 6 5 4 4 4 3 2 2 1 360 357 353 349 346 343 341 340 339 338 338 338 337 337 337 337 339 340 340 340 338 337 335 334 333 332 332 332 332 332 332 333 333 333 334
24 24 24 25 24 22 20 17 16 16 16 16 16 18 22 25 25 25 26 26 24 24 24 27 34 38 38 35 34 33 33 32 26 21 19 15 11 11 9 5 3 1 359 359 0 1 0 359 358 359 359 358 356 354 351 347 344 342 340 339 339 339 339 339 338 338 338 339 340 340 340 339 338 337 336 334 333 332 333 333 332 332 333 334 334 335 335
22 23 23 23 23 21 18 16 15 15 15 14 14 16 20 22 22 22 23 23 22 21 23 28 33 36 35 33 33 31 29 27 22 17 14 9 4 3 1 358 357 355 351 350 354 356 355 353 353 355 356 355 354 351 349 346 344 342 341 340 340 340 339 339 339 339 340 340 340 340 340 339 338 337 336 335 333 333 333 333 332 332 334 335 336 336 336
21 22 22 21 21 19 16 14 14 14 13 12 13 15 18 19 19 20 20 19 18 20 25 29 32 33 32 31 29 26 24 22 18 12 7 2 358 355 352 349 349 347 342 342 348 351 350 348 349 350 351 353 352 350 347 346 344 342 342 341 340 340 339 339 339 339 341 341 341 340 340 339 338 337 336 335 334 334 333 333 333 333 335 336 337 337 337
20 21 20 20 18 16 14 12 12 12 11 10 11 14 15 16 16 17 16 14 16 21 25 27 28 28 28 27 24 20 17 16 12 5 360 356 352 349 346 342 341 340 336 335 341 345 345 343 343 345 347 350 350 348 346 345 344 343 342 341 340 339 339 339 339 340 341 342 341 340 339 339 338 338 337 336 335 335 334 334 334 334 336 337 338 338 338
19 19 18 17 15 12 11 10 9 9 10 10 10 10 12 13 13 13 12 14 17 21 23 24 24 24 22 19 16 13 10 8 4 357 352 349 346 343 340 338 337 336 331 328 334 339 339 338 338 341 344 346 346 345 345 345 344 343 342 341 340 340 340 339 339 340 341 342 342 341 340 339 339 337 337 336 336 336 335 335 335 335 336 337 338 339 339
18 18 17 14 11 8 7 7 7 7 8 9 8 7 8 10 10 9 11 14 16 17 18 19 19 17 14 11 9 6 2 359 355 347 343 342 342 339 336 334 333 330 324 324 331 336 335 335 336 338 340 342 343 343 344 344 344 343 342 341 340 340 340 340 340 341 342 342 342 341 340 339 338 337 337 337 336 336 335 335 335 336 336 337 338 339 339
16 16 15 12 8 5 3 4 5 6 7 7 7 5 6 7 8 9 11 12 11 11 13 13 12 9 6 4 1 357 354 351 346 340 336 336 336 334 331 329 328 327 322 323 329 331 331 332 333 334 336 339 341 341 342 343 343 342 342 341 340 340 340 340 341 341 342 342 342 340 339 339 338 338 337 337 336 336 335 335 335 336 336 338 339 339 340
15 13 12 10 7 3 1 2 3 5 6 7 6 5 5 6 7 8 9 8 7 7 7 6 3 1 359 356 353 350 349 345 338 333 330 330 330 329 327 325 326 325 322 322 325 327 327 327 329 331 334 337 339 339 339 341 342 342 341 340 340 340 340 340 341 342 343 343 342 341 340 339 339 338 338 337 337 336 335 336 336 336 337 338 340 340 341
13 11 10 8 5 2 360 0 3 5 6 6 5 5 5 5 5 5 5 4 3 1 360 359 357 355 353 350 347 344 341 339 334 328 324 325 326 325 323 321 320 320 319 320 322 324 324 324 326 330 334 335 336 337 337 339 340 340 340 340 340 340 340 340 341 343 343 343 342 341 341 340 339 339 338 338 337 336 336 336 337 337 338 339 340 341 342
11 10 9 6 4 3 0 360 4 6 6 5 5 6 4 2 1 1 0 358 356 355 354 353 352 350 348 345 342 338 335 334 331 325 322 323 324 322 319 317 316 316 317 318 319 321 322 323 326 330 333 334 334 335 336 337 338 339 339 339 340 340 340 341 342 343 344 343 343 342 341 341 340 339 339 338 337 336 336 337 337 338 338 339 340 342 343
9 9 7 4 3 4 2 0 3 6 6 4 4 3 1 359 358 357 356 353 351 350 350 349 348 346 343 340 337 333 331 329 326 322 320 321 321 318 314 313 313 314 315 316 318 321 324 326 328 330 331 332 333 334 335 335 337 338 338 339 339 340 340 341 342 344 344 344 343 343 342 341 340 340 339 338 337 337 337 337 338 338 339 340 341 342 343
8 7 6 3 3 4 4 2 2 3 3 2 1 360 358 355 353 352 352 351 349 347 346 346 345 342 340 337 334 331 327 324 321 319 317 316 316 314 311 311 313 313 313 315 319 324 327 329 330 330 330 331 332 333 334 335 336 337 338 338 339 339 340 341 343 344 344 344 344 344 343 343 341 340 339 339 338 337 337 338 339 339 339 340 342 343 342
6 6 5 3 2 3 4 2 0 359 359 357 356 355 354 352 350 348 348 348 347 345 344 343 342 340 338 336 332 328 324 320 316 315 314 312 311 311 312 312 313 312 312 315 322 327 329 329 330 330 330 330 332 333 333 334 335 336 337 337 338 339 340 342 343 344 345 345 345 345 345 344 342 341 339 339 338 338 338 339 340 340 340 341 342 343 343
4 5 5 3 1 0 360 358 357 355 354 353 352 351 350 349 348 346 344 344 344 344 343 342 340 338 336 333 330 326 322 317 313 313 313 311 309 311 312 311 312 313 314 317 323 328 328 328 329 330 330 330 331 332 332 333 334 335 336 337 338 339 341 342 344 345 345 346 346 346 346 345 344 342 340 339 339 339 339 340 340 341 341 341 342 343 344
2 2 3 1 359 357 355 354 353 352 351 350 349 348 347 346 345 343 342 341 342 342 341 340 338 336 334 332 328 325 321 315 312 313 314 312 311 312 311 308 310 314 316 319 324 327 328 328 329 330 330 330 331 331 332 333 334 335 336 337 338 339 341 343 344 345 346 346 347 348 347 347 345 344 342 340 339 339 340 340 341 341 341 341 341 343 345
360 360 359 357 356 354 352 351 350 349 348 347 347 345 344 343 342 341 340 339 339 339 339 338 337 335 333 330 327 324 321 316 312 313 315 314 310 307 305 306 312 317 319 322 325 327 327 328 329 329 329 330 331 331 332 333 334 335 336 337 338 340 341 343 344 345 346 347 348 348 349 348 347 345 343 341 340 340 340 341 341 341 341 341 342 344 345
357 356 354 353 352 351 350 348 347 346 346 345 344 343 341 340 339 338 338 337 336 336 337 337 335 333 331 329 327 325 322 317 312 312 313 313 309 304 303 308 314 318 320 322 325 326 326 327 328 328 329 330 331 331 332 333 334 335 336 337 338 340 341 342 344 345 346 347 348 349 350 349 348 346 344 342 341 340 340 341 342 342 342 342 343 344 345
354 353 352 350 349 349 348 346 345 344 344 343 342 341 339 338 336 335 335 335 334 334 335 336 334 332 330 329 326 323 320 316 313 312 313 312 308 305 307 312 316 317 319 322 324 325 325 327 327 328 329 330 331 331 332 333 334 336 337 337 338 340 341 342 343 345 346 347 349 350 350 350 349 347 346 344 342 340 340 341 342 342 343 343 344 343 344
351 350 349 348 347 346 346 345 344 342 342 341 340 339 337 336 334 332 332 332 332 332 332 333 332 330 328 325 323 321 318 314 311 312 314 312 308 307 310 313 315 317 320 323 324 324 325 326 327 328 330 330 331 332 333 334 335 336 337 337 338 339 340 341 343 344 346 347 348 349 350 350 349 348 347 345 343 341 340 341 342 343 344 344 343 343 343